Time,TemperatureF,DewpointF,PressureIn,WindDirection,WindDirectionDegrees,WindSpeedMPH,WindSpeedGustMPH,Humidity,HourlyPrecipIn,Conditions,Clouds,dailyrainin,SolarRadiationWatts/m^2,SoftwareType,DateUTC
2013-02-12 00:00:00,40.5,38.1,30.15,SSW,212,0.0,0.0,91,0.00,,,0.00,0,WeatherCatV1.12B45,2013-02-12 08:00:00,
2013-02-12 00:05:00,-999.0,-99.9,30.15,North,-999,-999.0,0.0,-999,0.00,,,0.00,,WeatherCatV1.12B45,2013-02-12 08:05:00,
2013-02-12 00:10:00,39.9,37.5,30.15,SSW,212,0.0,0.0,91,0.00,,,0.00,,WeatherCatV1.12B45,2013-02-12 08:10:00,
2013-02-12 00:15:00,39.8,37.4,30.16,SSW,212,0.0,0.0,91,0.00,,,0.00,0,WeatherCatV1.12B45,2013-02-12 08:15:00,
2013-02-12 00:20:00,39.6,37.2,30.16,SSW,212,0.0,0.0,91,0.00,,,0.00,0,WeatherCatV1.12B45,2013-02-12 08:20:00,
2013-02-12 00:30:00,39.5,37.1,30.16,SSW,212,0.0,0.0,91,0.00,,,0.00,0,WeatherCatV1.12B45,2013-02-12 08:30:00,
2013-02-12 00:35:00,39.3,36.9,30.16,SSW,212,0.0,0.0,91,0.00,,,0.00,0,WeatherCatV1.12B45,2013-02-12 08:35:00,
2013-02-12 00:40:00,39.2,36.8,30.16,SSW,212,0.0,0.0,91,0.00,,,0.00,0,WeatherCatV1.12B45,2013-02-12 08:40:00,
2013-02-12 00:45:00,39.1,36.7,30.15,SSW,212,0.0,0.0,91,0.00,,,0.00,0,WeatherCatV1.12B45,2013-02-12 08:45:00,
2013-02-12 00:50:00,38.9,36.5,30.15,SSW,212,0.0,0.0,91,0.00,,,0.00,0,WeatherCatV1.12B45,2013-02-12 08:50:00,
2013-02-12 00:55:00,38.9,36.5,30.15,SSW,212,0.0,0.0,91,0.00,,,0.00,0,WeatherCatV1.12B45,2013-02-12 08:55:00,
2013-02-12 01:00:00,38.8,36.4,30.16,SSW,212,0.0,0.0,91,0.00,,,0.00,0,WeatherCatV1.12B45,2013-02-12 09:00:00,
2013-02-12 01:05:00,38.8,36.4,30.16,SSW,212,0.0,0.0,91,0.00,,,0.00,0,WeatherCatV1.12B45,2013-02-12 09:05:00,
2013-02-12 01:10:00,38.8,36.4,30.16,SSW,212,0.0,0.0,91,0.00,,,0.00,0,WeatherCatV1.12B45,2013-02-12 09:10:00,
2013-02-12 01:15:00,38.9,36.8,30.16,SSW,212,0.0,0.0,92,0.00,,,0.00,0,WeatherCatV1.12B45,2013-02-12 09:15:00,
2013-02-12 01:20:00,39.2,37.1,30.16,SSW,212,0.0,0.0,92,0.00,,,0.00,0,WeatherCatV1.12B45,2013-02-12 09:20:00,
2013-02-12 01:25:00,39.3,37.2,30.16,SSW,212,0.0,0.0,92,0.00,,,0.00,0,WeatherCatV1.12B45,2013-02-12 09:25:00,
2013-02-12 01:30:00,39.5,37.4,30.16,SSW,212,0.0,0.0,92,0.00,,,0.00,0,WeatherCatV1.12B45,2013-02-12 09:30:00,
2013-02-12 01:35:00,39.5,37.4,30.16,SSW,212,0.0,0.0,92,0.00,,,0.00,0,WeatherCatV1.12B45,2013-02-12 09:35:00,
2013-02-12 01:40:00,39.3,37.2,30.16,SSW,212,0.0,0.0,92,0.00,,,0.00,0,WeatherCatV1.12B45,2013-02-12 09:40:00,
2013-02-12 01:45:00,39.3,37.2,30.16,SSW,212,0.0,0.0,92,0.00,,,0.00,0,WeatherCatV1.12B45,2013-02-12 09:45:00,
2013-02-12 01:50:00,39.2,37.1,30.16,SSW,212,0.0,0.0,92,0.00,,,0.00,0,WeatherCatV1.12B45,2013-02-12 09:50:00,
2013-02-12 01:55:00,39.2,37.1,30.16,SSW,212,0.0,0.0,92,0.00,,,0.00,0,WeatherCatV1.12B45,2013-02-12 09:55:00,
2013-02-12 02:00:00,39.1,37.0,30.16,SSW,212,0.0,0.0,92,0.00,,,0.00,0,WeatherCatV1.12B45,2013-02-12 10:00:00,
2013-02-12 02:05:00,38.9,36.8,30.16,SSW,212,0.0,0.0,92,0.00,,,0.00,0,WeatherCatV1.12B45,2013-02-12 10:05:00,
2013-02-12 02:10:00,38.9,36.8,30.16,SSW,212,0.0,0.0,92,0.00,,,0.00,0,WeatherCatV1.12B45,2013-02-12 10:10:00,
2013-02-12 02:15:00,38.8,36.7,30.16,SSW,212,0.0,0.0,92,0.00,,,0.00,0,WeatherCatV1.12B45,2013-02-12 10:15:00,
2013-02-12 02:20:00,38.6,36.5,30.16,SSW,212,0.0,0.0,92,0.00,,,0.00,0,WeatherCatV1.12B45,2013-02-12 10:20:00,
2013-02-12 02:25:00,38.5,36.4,30.16,SSW,212,0.0,0.0,92,0.00,,,0.00,0,WeatherCatV1.12B45,2013-02-12 10:25:00,
2013-02-12 02:30:00,38.3,36.2,30.17,SSW,212,0.0,0.0,92,0.00,,,0.00,0,WeatherCatV1.12B45,2013-02-12 10:30:00,
2013-02-12 02:35:00,38.2,36.1,30.17,SSW,212,0.0,0.0,92,0.00,,,0.00,0,WeatherCatV1.12B45,2013-02-12 10:35:00,
2013-02-12 02:40:00,38.0,35.9,30.17,SSW,212,0.0,0.0,92,0.00,,,0.00,0,WeatherCatV1.12B45,2013-02-12 10:40:00,
2013-02-12 02:45:00,37.9,35.8,30.17,SSW,213,0.0,0.0,92,0.00,,,0.00,0,WeatherCatV1.12B45,2013-02-12 10:45:00,
2013-02-12 02:50:00,37.8,35.7,30.17,SSW,213,0.0,0.0,92,0.00,,,0.00,0,WeatherCatV1.12B45,2013-02-12 10:50:00,
2013-02-12 02:55:00,37.6,35.5,30.17,SSW,213,0.0,0.0,92,0.00,,,0.00,0,WeatherCatV1.12B45,2013-02-12 10:55:00,
2013-02-12 03:00:00,37.6,35.5,30.17,SW,215,0.0,0.0,92,0.00,,,0.00,0,WeatherCatV1.12B45,2013-02-12 11:00:00,
2013-02-12 03:05:00,37.5,35.4,30.17,SW,215,0.0,0.0,92,0.00,,,0.00,0,WeatherCatV1.12B45,2013-02-12 11:05:00,
2013-02-12 03:10:00,37.2,35.1,30.17,SW,215,0.0,0.0,92,0.00,,,0.00,0,WeatherCatV1.12B45,2013-02-12 11:10:00,
2013-02-12 03:15:00,37.0,34.9,30.17,WSW,246,0.0,0.0,92,0.00,,,0.00,0,WeatherCatV1.12B45,2013-02-12 11:15:00,
2013-02-12 03:20:00,36.9,34.8,30.17,SW,226,0.0,0.0,92,0.00,,,0.00,0,WeatherCatV1.12B45,2013-02-12 11:20:00,
2013-02-12 03:25:00,36.9,34.8,30.17,WSW,253,0.0,0.0,92,0.00,,,0.00,0,WeatherCatV1.12B45,2013-02-12 11:25:00,
2013-02-12 03:30:00,36.8,34.7,30.17,WSW,244,0.0,0.0,92,0.00,,,0.00,0,WeatherCatV1.12B45,2013-02-12 11:30:00,
2013-02-12 03:35:00,36.6,34.5,30.17,West,277,0.0,0.0,92,0.00,,,0.00,0,WeatherCatV1.12B45,2013-02-12 11:35:00,
2013-02-12 03:40:00,36.5,34.4,30.17,SSW,213,0.0,0.0,92,0.00,,,0.00,0,WeatherCatV1.12B45,2013-02-12 11:40:00,
2013-02-12 03:45:00,36.5,34.4,30.17,SW,215,0.0,0.0,92,0.00,,,0.00,0,WeatherCatV1.12B45,2013-02-12 11:45:00,
2013-02-12 03:50:00,36.3,34.2,30.17,SW,215,0.0,0.0,92,0.00,,,0.00,0,WeatherCatV1.12B45,2013-02-12 11:50:00,
2013-02-12 03:55:00,36.3,34.2,30.17,SW,224,0.0,0.0,92,0.00,,,0.00,0,WeatherCatV1.12B45,2013-02-12 11:55:00,
2013-02-12 04:00:00,36.0,33.9,30.18,SW,215,0.0,0.0,92,0.00,,,0.00,0,WeatherCatV1.12B45,2013-02-12 12:00:00,
2013-02-12 04:05:00,36.0,33.9,30.18,West,263,0.0,0.0,92,0.00,,,0.00,0,WeatherCatV1.12B45,2013-02-12 12:05:00,
2013-02-12 04:10:00,35.9,33.8,30.18,SSW,213,0.0,0.0,92,0.00,,,0.00,0,WeatherCatV1.12B45,2013-02-12 12:10:00,
2013-02-12 04:15:00,35.8,33.7,30.18,SW,215,0.0,0.0,92,0.00,,,0.00,0,WeatherCatV1.12B45,2013-02-12 12:15:00,
2013-02-12 04:20:00,35.8,33.7,30.18,West,263,0.0,0.0,92,0.00,,,0.00,0,WeatherCatV1.12B45,2013-02-12 12:20:00,
2013-02-12 04:25:00,35.6,33.5,30.18,SW,215,0.0,0.0,92,0.00,,,0.00,0,WeatherCatV1.12B45,2013-02-12 12:25:00,
2013-02-12 04:30:00,35.5,33.4,30.18,SSW,213,0.0,0.0,92,0.00,,,0.00,0,WeatherCatV1.12B45,2013-02-12 12:30:00,
2013-02-12 04:35:00,35.3,33.2,30.18,SW,216,0.0,0.0,92,0.00,,,0.00,0,WeatherCatV1.12B45,2013-02-12 12:35:00,
2013-02-12 04:40:00,35.2,33.1,30.18,SW,216,0.0,0.0,92,0.00,,,0.00,0,WeatherCatV1.12B45,2013-02-12 12:40:00,
2013-02-12 04:45:00,35.0,32.9,30.18,SW,216,0.0,0.0,92,0.00,,,0.00,0,WeatherCatV1.12B45,2013-02-12 12:45:00,
2013-02-12 04:50:00,35.0,32.9,30.18,SW,216,0.0,0.0,92,0.00,,,0.00,0,WeatherCatV1.12B45,2013-02-12 12:50:00,
2013-02-12 04:55:00,34.9,32.8,30.18,WSW,253,0.0,0.0,92,0.00,,,0.00,0,WeatherCatV1.12B45,2013-02-12 12:55:00,
2013-02-12 05:00:00,34.9,33.1,30.18,SSW,213,0.0,0.0,93,0.00,,,0.00,0,WeatherCatV1.12B45,2013-02-12 13:00:00,
2013-02-12 05:05:00,34.9,32.8,30.18,SSW,213,0.0,0.0,92,0.00,,,0.00,0,WeatherCatV1.12B45,2013-02-12 13:05:00,
2013-02-12 05:10:00,34.7,32.6,30.18,SSW,213,0.0,0.0,92,0.00,,,0.00,0,WeatherCatV1.12B45,2013-02-12 13:10:00,
2013-02-12 05:15:00,34.7,32.6,30.18,SW,217,0.0,0.0,92,0.00,,,0.00,0,WeatherCatV1.12B45,2013-02-12 13:15:00,
2013-02-12 05:20:00,34.6,32.8,30.18,SSW,213,0.0,0.0,93,0.00,,,0.00,0,WeatherCatV1.12B45,2013-02-12 13:20:00,
2013-02-12 05:25:00,34.6,32.8,30.18,SSW,213,0.0,0.0,93,0.00,,,0.00,0,WeatherCatV1.12B45,2013-02-12 13:25:00,
2013-02-12 05:30:00,34.6,32.5,30.19,SSW,213,0.0,0.0,92,0.00,,,0.00,0,WeatherCatV1.12B45,2013-02-12 13:30:00,
2013-02-12 05:35:00,34.4,32.3,30.19,SSW,213,0.0,0.0,92,0.00,,,0.00,0,WeatherCatV1.12B45,2013-02-12 13:35:00,
2013-02-12 05:40:00,34.3,32.2,30.19,SSW,213,0.0,0.0,92,0.00,,,0.00,0,WeatherCatV1.12B45,2013-02-12 13:40:00,
2013-02-12 05:45:00,34.3,32.2,30.19,SSW,213,0.0,0.0,92,0.00,,,0.00,0,WeatherCatV1.12B45,2013-02-12 13:45:00,
2013-02-12 05:50:00,34.3,32.2,30.19,SSW,213,0.0,0.0,92,0.00,,,0.00,0,WeatherCatV1.12B45,2013-02-12 13:50:00,
2013-02-12 05:55:00,34.3,32.5,30.19,SSW,213,0.0,0.0,93,0.00,,,0.00,0,WeatherCatV1.12B45,2013-02-12 13:55:00,
2013-02-12 06:00:00,34.3,32.5,30.20,SSW,213,0.0,0.0,93,0.00,,,0.00,0,WeatherCatV1.12B45,2013-02-12 14:00:00,
2013-02-12 06:05:00,34.6,32.8,30.20,SSW,213,0.0,0.0,93,0.00,,,0.00,0,WeatherCatV1.12B45,2013-02-12 14:05:00,
2013-02-12 06:10:00,34.9,33.1,30.20,SSW,213,0.0,0.0,93,0.00,,,0.00,0,WeatherCatV1.12B45,2013-02-12 14:10:00,
2013-02-12 06:15:00,35.2,33.4,30.21,SSW,213,0.0,0.0,93,0.00,,,0.00,0,WeatherCatV1.12B45,2013-02-12 14:15:00,
2013-02-12 06:20:00,35.5,33.7,30.21,SSW,213,0.0,0.0,93,0.00,,,0.00,0,WeatherCatV1.12B45,2013-02-12 14:20:00,
2013-02-12 06:25:00,35.8,34.2,30.21,SSW,213,0.0,0.0,94,0.00,,,0.00,0,WeatherCatV1.12B45,2013-02-12 14:25:00,
2013-02-12 06:30:00,36.2,34.6,30.22,SSW,213,0.0,0.0,94,0.00,,,0.00,0,WeatherCatV1.12B45,2013-02-12 14:30:00,
2013-02-12 06:35:00,36.6,35.0,30.22,SSW,213,0.0,0.0,94,0.00,,,0.00,0,WeatherCatV1.12B45,2013-02-12 14:35:00,
2013-02-12 06:40:00,36.9,35.3,30.22,SSW,213,0.0,0.0,94,0.00,,,0.00,0,WeatherCatV1.12B45,2013-02-12 14:40:00,
2013-02-12 06:45:00,37.2,35.6,30.22,SSW,213,0.0,0.0,94,0.00,,,0.00,0,WeatherCatV1.12B45,2013-02-12 14:45:00,
2013-02-12 06:50:00,37.3,35.7,30.22,SSW,213,0.0,0.0,94,0.00,,,0.00,0,WeatherCatV1.12B45,2013-02-12 14:50:00,
2013-02-12 06:55:00,37.6,36.0,30.22,SSW,213,0.0,0.0,94,0.00,,,0.00,0,WeatherCatV1.12B45,2013-02-12 14:55:00,
2013-02-12 07:00:00,37.9,36.3,30.23,SSW,213,0.0,0.0,94,0.00,,,0.00,0,WeatherCatV1.12B45,2013-02-12 15:00:00,
2013-02-12 07:05:00,38.0,36.4,30.23,SSW,213,0.0,0.0,94,0.00,,,0.00,0,WeatherCatV1.12B45,2013-02-12 15:05:00,
2013-02-12 07:10:00,38.2,36.6,30.23,SSW,213,0.0,0.0,94,0.00,,,0.00,0,WeatherCatV1.12B45,2013-02-12 15:10:00,
2013-02-12 07:15:00,38.3,36.7,30.24,SSW,213,0.0,0.0,94,0.00,,,0.00,0,WeatherCatV1.12B45,2013-02-12 15:15:00,
2013-02-12 07:20:00,38.5,36.9,30.24,SSW,213,0.0,0.0,94,0.00,,,0.00,11,WeatherCatV1.12B45,2013-02-12 15:20:00,
2013-02-12 07:25:00,38.6,37.0,30.24,SSW,212,0.0,0.0,94,0.00,,,0.00,11,WeatherCatV1.12B45,2013-02-12 15:25:00,
2013-02-12 07:30:00,38.6,37.0,30.24,SSW,212,0.0,0.0,94,0.00,,,0.00,11,WeatherCatV1.12B45,2013-02-12 15:30:00,
2013-02-12 07:35:00,38.6,37.0,30.24,SSW,212,0.0,0.0,94,0.00,,,0.00,11,WeatherCatV1.12B45,2013-02-12 15:35:00,
2013-02-12 07:40:00,38.6,37.0,30.24,SSW,212,0.0,0.0,94,0.00,,,0.00,11,WeatherCatV1.12B45,2013-02-12 15:40:00,
2013-02-12 07:45:00,38.6,37.0,30.25,SSW,212,0.0,0.0,94,0.00,,,0.00,11,WeatherCatV1.12B45,2013-02-12 15:45:00,
2013-02-12 07:50:00,38.6,37.0,30.25,SSW,212,0.0,0.0,94,0.00,,,0.00,11,WeatherCatV1.12B45,2013-02-12 15:50:00,
2013-02-12 07:55:00,38.6,37.0,30.25,SSW,212,0.0,0.0,94,0.00,,,0.00,11,WeatherCatV1.12B45,2013-02-12 15:55:00,
2013-02-12 08:00:00,38.6,37.0,30.25,SSW,212,0.0,0.0,94,0.00,,,0.00,11,WeatherCatV1.12B45,2013-02-12 16:00:00,
2013-02-12 08:05:00,38.6,37.0,30.25,SSW,212,0.0,0.0,94,0.00,,,0.00,11,WeatherCatV1.12B45,2013-02-12 16:05:00,
2013-02-12 08:10:00,38.6,37.0,30.25,SSW,212,0.0,0.0,94,0.00,,,0.00,11,WeatherCatV1.12B45,2013-02-12 16:10:00,
2013-02-12 08:15:00,38.6,37.0,30.27,SSW,212,0.0,0.0,94,0.00,,,0.00,11,WeatherCatV1.12B45,2013-02-12 16:15:00,
2013-02-12 08:20:00,38.6,37.0,30.27,SSW,212,0.0,0.0,94,0.00,,,0.00,11,WeatherCatV1.12B45,2013-02-12 16:20:00,
2013-02-12 08:25:00,38.6,37.0,30.27,SSW,212,0.0,0.0,94,0.00,,,0.00,11,WeatherCatV1.12B45,2013-02-12 16:25:00,
2013-02-12 08:30:00,38.6,37.0,30.27,SSW,212,0.0,0.0,94,0.00,,,0.00,11,WeatherCatV1.12B45,2013-02-12 16:30:00,
2013-02-12 08:35:00,38.6,37.0,30.27,SSW,212,0.0,0.0,94,0.00,,,0.00,11,WeatherCatV1.12B45,2013-02-12 16:35:00,
2013-02-12 08:40:00,38.6,37.0,30.27,SSW,212,0.0,0.0,94,0.00,,,0.00,11,WeatherCatV1.12B45,2013-02-12 16:40:00,
2013-02-12 08:45:00,38.6,37.0,30.27,SSW,212,0.0,0.0,94,0.00,,,0.00,11,WeatherCatV1.12B45,2013-02-12 16:45:00,
2013-02-12 08:50:00,38.6,37.0,30.27,SSW,212,0.0,0.0,94,0.00,,,0.00,11,WeatherCatV1.12B45,2013-02-12 16:50:00,
2013-02-12 08:55:00,38.6,37.0,30.27,SSW,212,0.0,0.0,94,0.00,,,0.00,11,WeatherCatV1.12B45,2013-02-12 16:55:00,
2013-02-12 09:00:00,38.6,37.0,30.28,SSW,212,0.0,0.0,94,0.00,,,0.00,11,WeatherCatV1.12B45,2013-02-12 17:00:00,
2013-02-12 09:05:00,38.6,37.0,30.28,SSW,212,0.0,0.0,94,0.00,,,0.00,11,WeatherCatV1.12B45,2013-02-12 17:05:00,
2013-02-12 09:10:00,38.6,37.0,30.28,SSW,212,0.0,0.0,94,0.00,,,0.00,11,WeatherCatV1.12B45,2013-02-12 17:10:00,
2013-02-12 09:15:00,48.2,46.3,30.28,North,0,0.0,2.0,93,0.00,,,0.00,405,WeatherCatV1.12B45,2013-02-12 17:15:00,
2013-02-12 09:20:00,48.5,46.3,30.28,SSW,209,0.0,3.0,92,0.00,,,0.00,396,WeatherCatV1.12B45,2013-02-12 17:20:00,
2013-02-12 09:25:00,48.6,46.1,30.28,North,0,2.0,2.0,91,0.00,,,0.00,408,WeatherCatV1.12B45,2013-02-12 17:25:00,
2013-02-12 09:30:00,49.2,46.7,30.28,North,0,0.0,2.0,91,0.00,,,0.00,410,WeatherCatV1.12B45,2013-02-12 17:30:00,
2013-02-12 09:35:00,49.5,46.4,30.28,SW,219,0.0,2.0,89,0.00,,,0.00,401,WeatherCatV1.12B45,2013-02-12 17:35:00,
2013-02-12 09:40:00,49.5,45.5,30.28,SW,223,0.0,1.0,86,0.00,,,0.00,419,WeatherCatV1.12B45,2013-02-12 17:40:00,
2013-02-12 09:45:00,49.5,45.2,30.28,North,356,0.0,1.0,85,0.00,,,0.00,457,WeatherCatV1.12B45,2013-02-12 17:45:00,
2013-02-12 09:50:00,49.5,43.9,30.28,WSW,244,0.0,3.0,81,0.00,,,0.00,477,WeatherCatV1.12B45,2013-02-12 17:50:00,
2013-02-12 09:55:00,49.5,42.9,30.28,North,356,0.0,2.0,78,0.00,,,0.00,491,WeatherCatV1.12B45,2013-02-12 17:55:00,
2013-02-12 10:00:00,52.2,45.5,30.28,WSW,256,2.0,3.0,78,0.00,,,0.00,493,WeatherCatV1.12B45,2013-02-12 18:00:00,
2013-02-12 10:05:00,52.6,45.3,30.28,West,268,0.0,1.0,76,0.00,,,0.00,498,WeatherCatV1.12B45,2013-02-12 18:05:00,
2013-02-12 10:10:00,53.1,44.7,30.28,West,268,2.0,3.0,73,0.00,,,0.00,498,WeatherCatV1.12B45,2013-02-12 18:10:00,
2013-02-12 10:15:00,53.1,44.7,30.28,SW,236,3.0,3.0,73,0.00,,,0.00,524,WeatherCatV1.12B45,2013-02-12 18:15:00,
2013-02-12 10:20:00,53.2,44.4,30.28,SW,234,1.0,3.0,72,0.00,,,0.00,533,WeatherCatV1.12B45,2013-02-12 18:20:00,
2013-02-12 10:25:00,53.3,44.5,30.28,WSW,254,0.0,0.0,72,0.00,,,0.00,549,WeatherCatV1.12B45,2013-02-12 18:25:00,
2013-02-12 10:30:00,53.3,44.1,30.28,WNW,292,0.0,4.0,71,0.00,,,0.00,549,WeatherCatV1.12B45,2013-02-12 18:30:00,
2013-02-12 10:35:00,53.5,42.8,30.28,West,274,1.0,5.0,67,0.00,,,0.00,565,WeatherCatV1.12B45,2013-02-12 18:35:00,
2013-02-12 10:40:00,53.9,42.4,30.28,West,261,3.0,5.0,65,0.00,,,0.00,582,WeatherCatV1.12B45,2013-02-12 18:40:00,
2013-02-12 10:45:00,54.1,41.4,30.28,WSW,239,0.0,3.0,62,0.00,,,0.00,582,WeatherCatV1.12B45,2013-02-12 18:45:00,
2013-02-12 10:50:00,54.4,39.5,30.28,WSW,247,2.0,5.0,57,0.00,,,0.00,582,WeatherCatV1.12B45,2013-02-12 18:50:00,
2013-02-12 10:55:00,54.5,39.1,30.28,SW,233,0.0,3.0,56,0.00,,,0.00,611,WeatherCatV1.12B45,2013-02-12 18:55:00,
2013-02-12 11:00:00,54.5,39.6,30.28,West,278,3.0,6.0,57,0.00,,,0.00,616,WeatherCatV1.12B45,2013-02-12 19:00:00,
2013-02-12 11:05:00,54.4,39.5,30.28,SW,223,2.0,5.0,57,0.00,,,0.00,632,WeatherCatV1.12B45,2013-02-12 19:05:00,
2013-02-12 11:10:00,54.5,39.6,30.28,SW,233,0.0,2.0,57,0.00,,,0.00,635,WeatherCatV1.12B45,2013-02-12 19:10:00,
2013-02-12 11:15:00,55.3,40.3,30.28,North,0,0.0,3.0,57,0.00,,,0.00,642,WeatherCatV1.12B45,2013-02-12 19:15:00,
2013-02-12 11:20:00,55.9,40.9,30.28,SSW,208,0.0,1.0,57,0.00,,,0.00,646,WeatherCatV1.12B45,2013-02-12 19:20:00,
2013-02-12 11:25:00,56.3,40.3,30.28,WNW,298,2.0,2.0,55,0.00,,,0.00,653,WeatherCatV1.12B45,2013-02-12 19:25:00,
2013-02-12 11:30:00,56.3,39.4,30.28,West,265,0.0,3.0,53,0.00,,,0.00,658,WeatherCatV1.12B45,2013-02-12 19:30:00,
2013-02-12 11:35:00,56.6,39.7,30.28,West,274,0.0,1.0,53,0.00,,,0.00,660,WeatherCatV1.12B45,2013-02-12 19:35:00,
2013-02-12 11:40:00,56.7,39.3,30.28,West,268,1.0,2.0,52,0.00,,,0.00,660,WeatherCatV1.12B45,2013-02-12 19:40:00,
2013-02-12 11:45:00,56.6,38.7,30.28,SW,220,1.0,6.0,51,0.00,,,0.00,669,WeatherCatV1.12B45,2013-02-12 19:45:00,
2013-02-12 11:50:00,56.6,38.7,30.28,WSW,243,2.0,3.0,51,0.00,,,0.00,669,WeatherCatV1.12B45,2013-02-12 19:50:00,
2013-02-12 11:55:00,56.9,39.0,30.28,West,265,2.0,2.0,51,0.00,,,0.00,676,WeatherCatV1.12B45,2013-02-12 19:55:00,
2013-02-12 12:00:00,57.2,38.7,30.27,West,265,1.0,5.0,50,0.00,,,0.00,679,WeatherCatV1.12B45,2013-02-12 20:00:00,
2013-02-12 12:05:00,57.3,38.8,30.27,West,267,2.0,5.0,50,0.00,,,0.00,679,WeatherCatV1.12B45,2013-02-12 20:05:00,
2013-02-12 12:10:00,57.2,38.7,30.27,West,267,2.0,5.0,50,0.00,,,0.00,679,WeatherCatV1.12B45,2013-02-12 20:10:00,
2013-02-12 12:15:00,57.5,38.5,30.27,North,357,2.0,3.0,49,0.00,,,0.00,683,WeatherCatV1.12B45,2013-02-12 20:15:00,
2013-02-12 12:20:00,58.1,39.0,30.27,West,260,0.0,0.0,49,0.00,,,0.00,683,WeatherCatV1.12B45,2013-02-12 20:20:00,
2013-02-12 12:25:00,58.6,38.4,30.27,WSW,250,1.0,3.0,47,0.00,,,0.00,684,WeatherCatV1.12B45,2013-02-12 20:25:00,
2013-02-12 12:30:00,59.0,39.3,30.27,South,189,2.0,2.0,48,0.00,,,0.00,683,WeatherCatV1.12B45,2013-02-12 20:30:00,
2013-02-12 12:35:00,59.3,38.5,30.27,North,353,3.0,3.0,46,0.00,,,0.00,677,WeatherCatV1.12B45,2013-02-12 20:35:00,
2013-02-12 12:40:00,59.5,37.6,30.27,SSW,193,1.0,7.0,44,0.00,,,0.00,679,WeatherCatV1.12B45,2013-02-12 20:40:00,
2013-02-12 12:45:00,59.5,38.1,30.26,SSW,200,0.0,3.0,45,0.00,,,0.00,679,WeatherCatV1.12B45,2013-02-12 20:45:00,
2013-02-12 12:50:00,59.5,38.7,30.26,SSW,203,2.0,5.0,46,0.00,,,0.00,681,WeatherCatV1.12B45,2013-02-12 20:50:00,
2013-02-12 12:55:00,59.6,38.2,30.26,SW,216,1.0,1.0,45,0.00,,,0.00,676,WeatherCatV1.12B45,2013-02-12 20:55:00,
2013-02-12 13:00:00,60.1,37.5,30.25,West,263,0.0,2.0,43,0.00,,,0.00,670,WeatherCatV1.12B45,2013-02-12 21:00:00,
2013-02-12 13:05:00,60.5,37.9,30.25,WSW,243,1.0,2.0,43,0.00,,,0.00,670,WeatherCatV1.12B45,2013-02-12 21:05:00,
2013-02-12 13:10:00,60.9,37.7,30.25,West,267,4.0,4.0,42,0.00,,,0.00,665,WeatherCatV1.12B45,2013-02-12 21:10:00,
2013-02-12 13:15:00,60.9,37.7,30.25,WSW,239,0.0,2.0,42,0.00,,,0.00,665,WeatherCatV1.12B45,2013-02-12 21:15:00,
2013-02-12 13:20:00,60.9,34.5,30.25,WSW,246,1.0,6.0,37,0.00,,,0.00,665,WeatherCatV1.12B45,2013-02-12 21:20:00,
2013-02-12 13:25:00,60.9,34.5,30.25,West,260,1.0,1.0,37,0.00,,,0.00,646,WeatherCatV1.12B45,2013-02-12 21:25:00,
2013-02-12 13:30:00,61.6,35.1,30.25,NNW,346,0.0,0.0,37,0.00,,,0.00,607,WeatherCatV1.12B45,2013-02-12 21:30:00,
2013-02-12 13:35:00,62.3,34.3,30.25,WSW,246,1.0,1.0,35,0.00,,,0.00,607,WeatherCatV1.12B45,2013-02-12 21:35:00,
2013-02-12 13:40:00,62.1,35.5,30.25,WSW,248,1.0,1.0,37,0.00,,,0.00,618,WeatherCatV1.12B45,2013-02-12 21:40:00,
2013-02-12 13:45:00,62.3,35.7,30.24,WSW,243,1.0,1.0,37,0.00,,,0.00,611,WeatherCatV1.12B45,2013-02-12 21:45:00,
2013-02-12 13:50:00,62.9,36.2,30.24,North,0,0.0,3.0,37,0.00,,,0.00,607,WeatherCatV1.12B45,2013-02-12 21:50:00,
2013-02-12 13:55:00,63.2,32.9,30.24,SW,234,0.0,3.0,32,0.00,,,0.00,607,WeatherCatV1.12B45,2013-02-12 21:55:00,
2013-02-12 14:00:00,63.2,32.1,30.24,West,275,0.0,2.0,31,0.00,,,0.00,596,WeatherCatV1.12B45,2013-02-12 22:00:00,
2013-02-12 14:05:00,63.2,33.6,30.24,WSW,253,0.0,1.0,33,0.00,,,0.00,596,WeatherCatV1.12B45,2013-02-12 22:05:00,
2013-02-12 14:10:00,63.4,33.8,30.24,WSW,256,2.0,2.0,33,0.00,,,0.00,589,WeatherCatV1.12B45,2013-02-12 22:10:00,
2013-02-12 14:15:00,63.5,33.1,30.23,North,0,2.0,2.0,32,0.00,,,0.00,570,WeatherCatV1.12B45,2013-02-12 22:15:00,
2013-02-12 14:20:00,63.5,32.3,30.23,West,274,3.0,5.0,31,0.00,,,0.00,563,WeatherCatV1.12B45,2013-02-12 22:20:00,
2013-02-12 14:25:00,63.5,33.9,30.23,WSW,251,1.0,2.0,33,0.00,,,0.00,551,WeatherCatV1.12B45,2013-02-12 22:25:00,
2013-02-12 14:30:00,63.5,33.9,30.23,SW,232,0.0,2.0,33,0.00,,,0.00,551,WeatherCatV1.12B45,2013-02-12 22:30:00,
2013-02-12 14:35:00,63.7,34.8,30.23,North,0,4.0,4.0,34,0.00,,,0.00,551,WeatherCatV1.12B45,2013-02-12 22:35:00,
2013-02-12 14:40:00,64.0,35.1,30.23,SSW,213,0.0,0.0,34,0.00,,,0.00,523,WeatherCatV1.12B45,2013-02-12 22:40:00,
2013-02-12 14:45:00,64.0,33.5,30.23,WSW,258,1.0,2.0,32,0.00,,,0.00,516,WeatherCatV1.12B45,2013-02-12 22:45:00,
2013-02-12 14:50:00,63.7,33.3,30.23,WNW,291,0.0,0.0,32,0.00,,,0.00,516,WeatherCatV1.12B45,2013-02-12 22:50:00,
2013-02-12 14:55:00,63.5,34.6,30.23,NW,306,0.0,2.0,34,0.00,,,0.00,482,WeatherCatV1.12B45,2013-02-12 22:55:00,
2013-02-12 15:00:00,63.4,35.3,30.22,West,278,0.0,2.0,35,0.00,,,0.00,482,WeatherCatV1.12B45,2013-02-12 23:00:00,
2013-02-12 15:05:00,63.9,35.7,30.22,NNW,332,0.0,0.0,35,0.00,,,0.00,452,WeatherCatV1.12B45,2013-02-12 23:05:00,
2013-02-12 15:10:00,64.2,34.5,30.22,North,357,0.0,0.0,33,0.00,,,0.00,452,WeatherCatV1.12B45,2013-02-12 23:10:00,
2013-02-12 15:15:00,64.5,34.8,30.22,NNW,343,0.0,3.0,33,0.00,,,0.00,452,WeatherCatV1.12B45,2013-02-12 23:15:00,
2013-02-12 15:20:00,63.9,34.2,30.22,North,353,0.0,6.0,33,0.00,,,0.00,415,WeatherCatV1.12B45,2013-02-12 23:20:00,
2013-02-12 15:25:00,63.2,33.6,30.22,NNW,339,0.0,0.0,33,0.00,,,0.00,405,WeatherCatV1.12B45,2013-02-12 23:25:00,
2013-02-12 15:30:00,63.2,44.8,30.22,North,354,3.0,5.0,51,0.00,,,0.00,357,WeatherCatV1.12B45,2013-02-12 23:30:00,
2013-02-12 15:35:00,62.1,44.8,30.22,North,353,0.0,2.0,53,0.00,,,0.00,361,WeatherCatV1.12B45,2013-02-12 23:35:00,
2013-02-12 15:40:00,61.6,44.3,30.22,North,357,0.0,3.0,53,0.00,,,0.00,204,WeatherCatV1.12B45,2013-02-12 23:40:00,
2013-02-12 15:45:00,61.5,44.7,30.22,North,354,1.0,2.0,54,0.00,,,0.00,183,WeatherCatV1.12B45,2013-02-12 23:45:00,
2013-02-12 15:50:00,61.3,45.0,30.22,North,354,1.0,1.0,55,0.00,,,0.00,183,WeatherCatV1.12B45,2013-02-12 23:50:00,
2013-02-12 15:55:00,61.0,43.7,30.22,NNW,332,1.0,1.0,53,0.00,,,0.00,183,WeatherCatV1.12B45,2013-02-12 23:55:00,
2013-02-12 16:00:00,61.0,43.7,30.22,NNW,343,3.0,3.0,53,0.00,,,0.00,183,WeatherCatV1.12B45,2013-02-13 00:00:00,
2013-02-12 16:05:00,60.9,44.6,30.22,North,350,1.0,1.0,55,0.00,,,0.00,183,WeatherCatV1.12B45,2013-02-13 00:05:00,
2013-02-12 16:10:00,60.7,44.4,30.22,North,350,0.0,0.0,55,0.00,,,0.00,183,WeatherCatV1.12B45,2013-02-13 00:10:00,
2013-02-12 16:15:00,60.7,44.0,30.22,NNW,335,1.0,1.0,54,0.00,,,0.00,183,WeatherCatV1.12B45,2013-02-13 00:15:00,
2013-02-12 16:20:00,60.7,44.0,30.22,NNW,342,0.0,0.0,54,0.00,,,0.00,183,WeatherCatV1.12B45,2013-02-13 00:20:00,
2013-02-12 16:25:00,60.5,44.2,30.22,NNW,335,0.0,2.0,55,0.00,,,0.00,53,WeatherCatV1.12B45,2013-02-13 00:25:00,
2013-02-12 16:30:00,60.1,43.4,30.22,NNW,333,0.0,1.0,54,0.00,,,0.00,53,WeatherCatV1.12B45,2013-02-13 00:30:00,
2013-02-12 16:35:00,59.8,43.1,30.22,NW,318,1.0,1.0,54,0.00,,,0.00,53,WeatherCatV1.12B45,2013-02-13 00:35:00,
2013-02-12 16:40:00,59.6,43.9,30.22,NW,318,0.0,0.0,56,0.00,,,0.00,53,WeatherCatV1.12B45,2013-02-13 00:40:00,
2013-02-12 16:45:00,59.3,44.5,30.22,SW,233,0.0,1.0,58,0.00,,,0.00,53,WeatherCatV1.12B45,2013-02-13 00:45:00,
2013-02-12 16:50:00,58.7,44.4,30.22,WNW,295,3.0,3.0,59,0.00,,,0.00,53,WeatherCatV1.12B45,2013-02-13 00:50:00,
2013-02-12 16:55:00,58.1,44.7,30.22,NNW,346,3.0,4.0,61,0.00,,,0.00,30,WeatherCatV1.12B45,2013-02-13 00:55:00,
2013-02-12 17:00:00,57.6,45.1,30.22,NNW,343,1.0,1.0,63,0.00,,,0.00,30,WeatherCatV1.12B45,2013-02-13 01:00:00,
2013-02-12 17:05:00,57.0,44.9,30.22,North,350,2.0,3.0,64,0.00,,,0.00,30,WeatherCatV1.12B45,2013-02-13 01:05:00,
2013-02-12 17:10:00,56.7,45.5,30.22,NW,315,0.0,0.0,66,0.00,,,0.00,25,WeatherCatV1.12B45,2013-02-13 01:10:00,
2013-02-12 17:15:00,56.6,45.4,30.22,NNW,340,0.0,0.0,66,0.00,,,0.00,21,WeatherCatV1.12B45,2013-02-13 01:15:00,
2013-02-12 17:20:00,56.2,45.4,30.22,NNW,329,0.0,1.0,67,0.00,,,0.00,18,WeatherCatV1.12B45,2013-02-13 01:20:00,
2013-02-12 17:25:00,55.7,45.3,30.22,NNW,343,0.0,0.0,68,0.00,,,0.00,14,WeatherCatV1.12B45,2013-02-13 01:25:00,
2013-02-12 17:30:00,55.4,45.4,30.22,NNW,339,0.0,0.0,69,0.00,,,0.00,14,WeatherCatV1.12B45,2013-02-13 01:30:00,
2013-02-12 17:35:00,55.1,45.1,30.22,NNW,332,0.0,0.0,69,0.00,,,0.00,9,WeatherCatV1.12B45,2013-02-13 01:35:00,
2013-02-12 17:40:00,54.8,45.2,30.22,NNW,343,0.0,0.0,70,0.00,,,0.00,7,WeatherCatV1.12B45,2013-02-13 01:40:00,
2013-02-12 17:45:00,54.4,45.2,30.23,NNW,332,0.0,0.0,71,0.00,,,0.00,5,WeatherCatV1.12B45,2013-02-13 01:45:00,
2013-02-12 17:50:00,54.1,44.9,30.23,NW,326,0.0,0.0,71,0.00,,,0.00,0,WeatherCatV1.12B45,2013-02-13 01:50:00,
2013-02-12 17:55:00,53.6,44.4,30.23,NW,305,0.0,0.0,71,0.00,,,0.00,0,WeatherCatV1.12B45,2013-02-13 01:55:00,
2013-02-12 18:00:00,53.3,44.9,30.23,NW,322,0.0,0.0,73,0.00,,,0.00,0,WeatherCatV1.12B45,2013-02-13 02:00:00,
2013-02-12 18:05:00,53.2,45.1,30.23,NW,319,0.0,0.0,74,0.00,,,0.00,0,WeatherCatV1.12B45,2013-02-13 02:05:00,
2013-02-12 18:10:00,52.6,44.6,30.23,NW,318,0.0,0.0,74,0.00,,,0.00,0,WeatherCatV1.12B45,2013-02-13 02:10:00,
2013-02-12 18:15:00,52.2,44.5,30.23,NW,308,0.0,0.0,75,0.00,,,0.00,0,WeatherCatV1.12B45,2013-02-13 02:15:00,
2013-02-12 18:20:00,52.0,44.3,30.23,WNW,288,0.0,0.0,75,0.00,,,0.00,0,WeatherCatV1.12B45,2013-02-13 02:20:00,
2013-02-12 18:25:00,51.6,43.9,30.23,NW,322,0.0,0.0,75,0.00,,,0.00,0,WeatherCatV1.12B45,2013-02-13 02:25:00,
2013-02-12 18:30:00,51.1,43.8,30.23,NW,325,0.0,0.0,76,0.00,,,0.00,0,WeatherCatV1.12B45,2013-02-13 02:30:00,
2013-02-12 18:35:00,50.7,43.8,30.23,NW,313,0.0,0.0,77,0.00,,,0.00,0,WeatherCatV1.12B45,2013-02-13 02:35:00,
2013-02-12 18:40:00,50.4,43.8,30.23,NW,313,0.0,0.0,78,0.00,,,0.00,0,WeatherCatV1.12B45,2013-02-13 02:40:00,
2013-02-12 18:45:00,49.9,43.3,30.23,NW,318,0.0,0.0,78,0.00,,,0.00,0,WeatherCatV1.12B45,2013-02-13 02:45:00,
2013-02-12 18:50:00,49.8,43.2,30.23,NW,306,0.0,0.0,78,0.00,,,0.00,0,WeatherCatV1.12B45,2013-02-13 02:50:00,
2013-02-12 18:55:00,49.4,42.8,30.23,NW,311,0.0,0.0,78,0.00,,,0.00,0,WeatherCatV1.12B45,2013-02-13 02:55:00,
2013-02-12 19:00:00,48.9,43.0,30.23,NW,316,0.0,0.0,80,0.00,,,0.00,0,WeatherCatV1.12B45,2013-02-13 03:00:00,
2013-02-12 19:05:00,48.6,42.7,30.23,NW,311,0.0,0.0,80,0.00,,,0.00,0,WeatherCatV1.12B45,2013-02-13 03:05:00,
2013-02-12 19:10:00,48.3,42.4,30.23,NW,309,0.0,0.0,80,0.00,,,0.00,0,WeatherCatV1.12B45,2013-02-13 03:10:00,
2013-02-12 19:15:00,48.0,42.5,30.23,WNW,301,0.0,0.0,81,0.00,,,0.00,0,WeatherCatV1.12B45,2013-02-13 03:15:00,
2013-02-12 19:20:00,47.7,42.2,30.23,NW,306,0.0,0.0,81,0.00,,,0.00,0,WeatherCatV1.12B45,2013-02-13 03:20:00,
2013-02-12 19:25:00,47.4,42.2,30.23,WNW,301,0.0,0.0,82,0.00,,,0.00,0,WeatherCatV1.12B45,2013-02-13 03:25:00,
2013-02-12 19:30:00,47.1,41.9,30.23,NW,312,0.0,0.0,82,0.00,,,0.00,0,WeatherCatV1.12B45,2013-02-13 03:30:00,
2013-02-12 19:35:00,47.0,41.8,30.23,WNW,298,0.0,0.0,82,0.00,,,0.00,0,WeatherCatV1.12B45,2013-02-13 03:35:00,
2013-02-12 19:40:00,46.7,41.5,30.23,NW,305,0.0,0.0,82,0.00,,,0.00,0,WeatherCatV1.12B45,2013-02-13 03:40:00,
2013-02-12 19:45:00,46.2,41.0,30.24,WNW,301,0.0,0.0,82,0.00,,,0.00,0,WeatherCatV1.12B45,2013-02-13 03:45:00,
2013-02-12 19:50:00,46.2,41.0,30.24,NW,309,0.0,0.0,82,0.00,,,0.00,0,WeatherCatV1.12B45,2013-02-13 03:50:00,
2013-02-12 19:55:00,45.8,41.2,30.24,NW,306,0.0,0.0,84,0.00,,,0.00,0,WeatherCatV1.12B45,2013-02-13 03:55:00,
2013-02-12 20:00:00,45.5,41.0,30.23,NW,308,0.0,0.0,84,0.00,,,0.00,0,WeatherCatV1.12B45,2013-02-13 04:00:00,
2013-02-12 20:05:00,45.4,40.9,30.23,NW,305,0.0,0.0,84,0.00,,,0.00,0,WeatherCatV1.12B45,2013-02-13 04:05:00,
2013-02-12 20:10:00,45.1,40.9,30.23,NW,305,0.0,0.0,85,0.00,,,0.00,0,WeatherCatV1.12B45,2013-02-13 04:10:00,
2013-02-12 20:15:00,44.9,40.7,30.24,WNW,289,0.0,0.0,85,0.00,,,0.00,0,WeatherCatV1.12B45,2013-02-13 04:15:00,
2013-02-12 20:20:00,44.6,40.7,30.24,WNW,285,0.0,0.0,86,0.00,,,0.00,0,WeatherCatV1.12B45,2013-02-13 04:20:00,
2013-02-12 20:25:00,44.5,40.6,30.24,WNW,302,0.0,0.0,86,0.00,,,0.00,0,WeatherCatV1.12B45,2013-02-13 04:25:00,
2013-02-12 20:30:00,44.2,40.3,30.24,West,280,0.0,0.0,86,0.00,,,0.00,0,WeatherCatV1.12B45,2013-02-13 04:30:00,
2013-02-12 20:35:00,44.1,40.2,30.24,WNW,299,0.0,0.0,86,0.00,,,0.00,0,WeatherCatV1.12B45,2013-02-13 04:35:00,
2013-02-12 20:40:00,43.9,40.0,30.24,West,281,0.0,0.0,86,0.00,,,0.00,0,WeatherCatV1.12B45,2013-02-13 04:40:00,
2013-02-12 20:45:00,43.8,40.2,30.24,WNW,296,0.0,0.0,87,0.00,,,0.00,0,WeatherCatV1.12B45,2013-02-13 04:45:00,
2013-02-12 20:50:00,43.6,40.0,30.24,WNW,302,0.0,0.0,87,0.00,,,0.00,0,WeatherCatV1.12B45,2013-02-13 04:50:00,
2013-02-12 20:55:00,43.5,39.9,30.24,NW,311,0.0,0.0,87,0.00,,,0.00,0,WeatherCatV1.12B45,2013-02-13 04:55:00,
2013-02-12 21:05:00,43.3,39.7,30.24,NW,304,0.0,0.0,87,0.00,,,0.00,0,WeatherCatV1.12B45,2013-02-13 05:05:00,
2013-02-12 21:10:00,43.1,39.5,30.24,South,178,0.0,0.0,87,0.00,,,0.00,0,WeatherCatV1.12B45,2013-02-13 05:10:00,
2013-02-12 21:15:00,42.8,39.2,30.25,SSW,199,0.0,0.0,87,0.00,,,0.00,0,WeatherCatV1.12B45,2013-02-13 05:15:00,
2013-02-12 21:20:00,42.8,39.2,30.25,SW,222,0.0,0.0,87,0.00,,,0.00,0,WeatherCatV1.12B45,2013-02-13 05:20:00,
2013-02-12 21:25:00,42.8,39.2,30.25,SSW,196,0.0,0.0,87,0.00,,,0.00,0,WeatherCatV1.12B45,2013-02-13 05:25:00,
2013-02-12 21:30:00,42.3,38.7,30.25,SSW,210,0.0,0.0,87,0.00,,,0.00,0,WeatherCatV1.12B45,2013-02-13 05:30:00,
2013-02-12 21:35:00,42.3,38.7,30.25,South,178,0.0,0.0,87,0.00,,,0.00,0,WeatherCatV1.12B45,2013-02-13 05:35:00,
2013-02-12 21:40:00,42.2,38.6,30.25,South,172,0.0,0.0,87,0.00,,,0.00,0,WeatherCatV1.12B45,2013-02-13 05:40:00,
2013-02-12 21:45:00,41.9,38.3,30.25,SSE,165,0.0,0.0,87,0.00,,,0.00,0,WeatherCatV1.12B45,2013-02-13 05:45:00,
2013-02-12 21:50:00,41.9,38.3,30.25,SSE,160,0.0,0.0,87,0.00,,,0.00,0,WeatherCatV1.12B45,2013-02-13 05:50:00,
2013-02-12 21:55:00,41.5,37.9,30.25,SSE,158,0.0,0.0,87,0.00,,,0.00,0,WeatherCatV1.12B45,2013-02-13 05:55:00,
2013-02-12 22:00:00,41.5,38.2,30.25,SW,224,0.0,0.0,88,0.00,,,0.00,0,WeatherCatV1.12B45,2013-02-13 06:00:00,
2013-02-12 22:05:00,41.3,38.0,30.25,SSE,158,0.0,0.0,88,0.00,,,0.00,0,WeatherCatV1.12B45,2013-02-13 06:05:00,
2013-02-12 22:10:00,41.2,37.9,30.25,SSE,158,0.0,0.0,88,0.00,,,0.00,0,WeatherCatV1.12B45,2013-02-13 06:10:00,
2013-02-12 22:15:00,41.1,37.8,30.25,SSE,160,0.0,0.0,88,0.00,,,0.00,0,WeatherCatV1.12B45,2013-02-13 06:15:00,
2013-02-12 22:20:00,41.1,37.8,30.25,SSE,161,0.0,0.0,88,0.00,,,0.00,0,WeatherCatV1.12B45,2013-02-13 06:20:00,
2013-02-12 22:25:00,41.1,37.8,30.25,SSE,161,0.0,0.0,88,0.00,,,0.00,0,WeatherCatV1.12B45,2013-02-13 06:25:00,
2013-02-12 22:30:00,40.5,37.2,30.24,SSE,161,0.0,0.0,88,0.00,,,0.00,0,WeatherCatV1.12B45,2013-02-13 06:30:00,
2013-02-12 22:35:00,40.3,37.3,30.24,SSE,165,0.0,0.0,89,0.00,,,0.00,0,WeatherCatV1.12B45,2013-02-13 06:35:00,
2013-02-12 22:40:00,40.2,37.2,30.24,SSE,164,0.0,0.0,89,0.00,,,0.00,0,WeatherCatV1.12B45,2013-02-13 06:40:00,
2013-02-12 22:45:00,40.1,37.1,30.24,NW,305,0.0,0.0,89,0.00,,,0.00,0,WeatherCatV1.12B45,2013-02-13 06:45:00,
2013-02-12 22:50:00,39.9,36.9,30.24,WNW,288,0.0,0.0,89,0.00,,,0.00,0,WeatherCatV1.12B45,2013-02-13 06:50:00,
2013-02-12 22:55:00,39.8,36.8,30.24,SSE,161,0.0,0.0,89,0.00,,,0.00,0,WeatherCatV1.12B45,2013-02-13 06:55:00,
2013-02-12 23:00:00,39.6,36.6,30.24,SSW,193,0.0,0.0,89,0.00,,,0.00,0,WeatherCatV1.12B45,2013-02-13 07:00:00,
2013-02-12 23:05:00,39.5,36.5,30.24,South,185,0.0,0.0,89,0.00,,,0.00,0,WeatherCatV1.12B45,2013-02-13 07:05:00,
2013-02-12 23:10:00,39.3,36.3,30.24,South,182,0.0,0.0,89,0.00,,,0.00,0,WeatherCatV1.12B45,2013-02-13 07:10:00,
2013-02-12 23:15:00,39.3,36.6,30.25,South,174,0.0,0.0,90,0.00,,,0.00,0,WeatherCatV1.12B45,2013-02-13 07:15:00,
2013-02-12 23:20:00,39.2,36.5,30.25,SSE,164,0.0,0.0,90,0.00,,,0.00,0,WeatherCatV1.12B45,2013-02-13 07:20:00,
2013-02-12 23:25:00,39.1,36.4,30.25,WNW,292,0.0,0.0,90,0.00,,,0.00,0,WeatherCatV1.12B45,2013-02-13 07:25:00,
2013-02-12 23:30:00,39.1,36.4,30.25,WNW,291,0.0,0.0,90,0.00,,,0.00,0,WeatherCatV1.12B45,2013-02-13 07:30:00,
2013-02-12 23:35:00,39.1,36.4,30.25,WNW,292,0.0,0.0,90,0.00,,,0.00,0,WeatherCatV1.12B45,2013-02-13 07:35:00,
2013-02-12 23:40:00,38.9,36.2,30.25,South,188,0.0,0.0,90,0.00,,,0.00,0,WeatherCatV1.12B45,2013-02-13 07:40:00,
2013-02-12 23:45:00,38.8,36.1,30.25,SSW,206,0.0,0.0,90,0.00,,,0.00,0,WeatherCatV1.12B45,2013-02-13 07:45:00,
2013-02-12 23:50:00,38.6,35.9,30.25,South,179,0.0,0.0,90,0.00,,,0.00,0,WeatherCatV1.12B45,2013-02-13 07:50:00,
2013-02-12 23:55:00,38.6,35.9,30.25,SSE,164,0.0,0.0,90,0.00,,,0.00,0,WeatherCatV1.12B45,2013-02-13 07:55:00,